TimeCDT,TemperatureF,Dew PointF,Humidity,Sea Level PressureIn,VisibilityMPH,Wind Direction,Wind SpeedMPH,Gust SpeedMPH,PrecipitationIn,Events,Conditions,WindDirDegrees,DateUTC
12:20 AM,53.6,51.8,94,29.99,1.8,Calm,Calm,-,N/A,,Clear,0,2012-09-30 05:20:00
12:52 AM,53.1,52.0,96,29.99,1.2,Calm,Calm,-,N/A,,Clear,0,2012-09-30 05:52:00
1:11 AM,51.8,51.8,100,29.99,3.0,Calm,Calm,-,N/A,,Clear,0,2012-09-30 06:11:00
1:52 AM,51.1,48.9,92,29.98,4.0,Calm,Calm,-,N/A,,Clear,0,2012-09-30 06:52:00
2:08 AM,51.8,50.0,94,29.98,2.5,Calm,Calm,-,N/A,,Clear,0,2012-09-30 07:08:00
2:15 AM,53.6,51.8,94,29.98,3.0,Calm,Calm,-,N/A,,Clear,0,2012-09-30 07:15:00
2:18 AM,51.8,51.8,100,29.98,1.8,Calm,Calm,-,N/A,,Clear,0,2012-09-30 07:18:00
2:31 AM,51.8,50.0,94,29.97,3.0,Calm,Calm,-,N/A,,Clear,0,2012-09-30 07:31:00
2:44 AM,51.8,50.0,94,29.97,1.8,Calm,Calm,-,N/A,,Clear,0,2012-09-30 07:44:00
2:52 AM,51.1,48.9,92,29.96,1.0,Calm,Calm,-,N/A,,Clear,0,2012-09-30 07:52:00
2:57 AM,51.8,48.2,88,29.96,4.0,Calm,Calm,-,N/A,,Clear,0,2012-09-30 07:57:00
3:09 AM,50.0,48.2,94,29.96,2.0,Calm,Calm,-,N/A,,Clear,0,2012-09-30 08:09:00
3:18 AM,51.8,50.0,94,29.96,1.2,Calm,Calm,-,N/A,,Clear,0,2012-09-30 08:18:00
3:26 AM,51.8,50.0,94,29.95,0.5,Calm,Calm,-,N/A,Fog,Fog,0,2012-09-30 08:26:00
3:35 AM,48.2,48.2,100,29.95,0.2,Calm,Calm,-,N/A,Fog,Fog,0,2012-09-30 08:35:00
3:41 AM,50.0,48.2,94,29.95,1.0,Calm,Calm,-,N/A,,Mist,0,2012-09-30 08:41:00
3:44 AM,50.0,48.2,94,29.95,2.0,Calm,Calm,-,N/A,,Partly Cloudy,0,2012-09-30 08:44:00
3:52 AM,50.0,48.9,96,29.95,2.5,Calm,Calm,-,0.01,,Partly Cloudy,0,2012-09-30 08:52:00
4:12 AM,48.2,48.2,100,29.95,3.0,Calm,Calm,-,N/A,,Clear,0,2012-09-30 09:12:00
4:35 AM,50.0,48.2,94,29.94,1.8,Calm,Calm,-,N/A,,Clear,0,2012-09-30 09:35:00
4:52 AM,50.0,48.9,96,29.94,1.0,Calm,Calm,-,N/A,,Clear,0,2012-09-30 09:52:00
5:02 AM,50.0,48.2,94,29.94,0.5,Calm,Calm,-,N/A,Fog,Fog,0,2012-09-30 10:02:00
5:16 AM,48.2,48.2,100,29.94,1.0,Calm,Calm,-,N/A,,Clear,0,2012-09-30 10:16:00
5:23 AM,48.2,46.4,93,29.94,0.8,Calm,Calm,-,N/A,,Clear,0,2012-09-30 10:23:00
5:28 AM,48.2,46.4,93,29.94,2.5,Calm,Calm,-,N/A,,Clear,0,2012-09-30 10:28:00
5:35 AM,48.2,46.4,93,29.93,3.0,Calm,Calm,-,N/A,,Clear,0,2012-09-30 10:35:00
5:38 AM,48.2,46.4,93,29.93,1.8,Calm,Calm,-,N/A,,Clear,0,2012-09-30 10:38:00
5:52 AM,50.0,48.0,93,29.93,1.8,Calm,Calm,-,N/A,,Clear,0,2012-09-30 10:52:00
5:55 AM,50.0,48.2,94,29.94,3.0,Calm,Calm,-,N/A,,Clear,0,2012-09-30 10:55:00
6:52 AM,48.9,46.9,93,29.94,5.0,Calm,Calm,-,N/A,,Clear,0,2012-09-30 11:52:00
7:11 AM,48.2,46.4,93,29.94,2.5,Calm,Calm,-,N/A,,Clear,0,2012-09-30 12:11:00
7:22 AM,50.0,48.2,94,29.94,4.0,Calm,Calm,-,N/A,,Clear,0,2012-09-30 12:22:00
7:52 AM,52.0,50.0,93,29.94,6.0,Calm,Calm,-,N/A,,Clear,0,2012-09-30 12:52:00
8:52 AM,57.0,54.0,89,29.95,6.0,SW,3.5,-,N/A,,Clear,230,2012-09-30 13:52:00
9:52 AM,63.0,55.9,78,29.94,10.0,WSW,4.6,-,N/A,,Clear,250,2012-09-30 14:52:00
10:52 AM,69.1,54.0,58,29.92,10.0,Calm,Calm,-,N/A,,Clear,0,2012-09-30 15:52:00
11:52 AM,71.1,54.0,55,29.91,10.0,Calm,Calm,-,N/A,,Clear,0,2012-09-30 16:52:00
12:52 PM,72.0,54.0,53,29.89,10.0,West,3.5,-,N/A,,Clear,270,2012-09-30 17:52:00
1:52 PM,73.9,50.0,43,29.87,10.0,North,5.8,-,N/A,,Clear,350,2012-09-30 18:52:00
2:52 PM,72.0,52.0,49,29.86,10.0,NNE,5.8,-,N/A,,Clear,20,2012-09-30 19:52:00
3:52 PM,71.1,50.0,47,29.84,10.0,NE,5.8,-,N/A,,Clear,50,2012-09-30 20:52:00
4:52 PM,71.1,53.1,53,29.83,10.0,Calm,Calm,-,N/A,,Clear,0,2012-09-30 21:52:00
5:52 PM,68.0,52.0,56,29.84,10.0,NNE,3.5,-,N/A,,Clear,20,2012-09-30 22:52:00
6:52 PM,63.0,54.0,72,29.85,10.0,NNE,3.5,-,N/A,,Clear,20,2012-09-30 23:52:00
7:52 PM,60.1,55.0,83,29.85,10.0,North,3.5,-,N/A,,Clear,350,2012-10-01 00:52:00
8:52 PM,59.0,53.1,81,29.85,10.0,NNE,5.8,-,N/A,,Clear,20,2012-10-01 01:52:00
9:52 PM,57.9,53.1,84,29.85,10.0,NNE,4.6,-,N/A,,Clear,20,2012-10-01 02:52:00
10:52 PM,57.9,52.0,81,29.85,10.0,NNE,4.6,-,N/A,,Clear,20,2012-10-01 03:52:00
11:52 PM,55.0,53.1,93,29.83,10.0,Calm,Calm,-,N/A,,Clear,0,2012-10-01 04:52:00